sat.trackr.live / text

‹ back to catalog

STARLINK-5666

NORAD 55349 · 2023-013U

PAYLOAD ACTIVE UNKNOWN

§ Identity

Operator
Country
US
Launch date
2023-01-26
Launch site
AFETR
Launch vehicle
Mass (kg)
RCS (m²)

Purposes: comms

External: N2YO · Heavens-Above · Gunter

§ Orbital elements

Epoch: 2026-09-20T09:38:11.987232Z

Period
94.26 min
Inclination
43.0011°
Eccentricity
0.0001195
Mean motion
15.27671901 rev/d
Perigee alt
482.0 km
Apogee alt
483.6 km
Semi-major
6,860.9 km
B*
-7.4269e-4
RAAN
283.6460°
Arg perigee
201.3899°
Mean anomaly
158.6903°
Rev number
20,145

§ Raw data

STARLINK-56661 55349U 23013U   26263.40152763 -.00020700  00000+0 -74269-3 0  99932 55349  43.0011 283.6460 0001195 201.3899 158.6903 15.27671901201457

JSON: /api/v1/satellites/55349 · /tle

For live sub-satellite position, see the globe view (requires WebGL).

§ Visibility from observer

Set your observer location to see the next 7 days of passes ≥ 10°. The values pass through the URL so the page stays shareable.

No JS? Fill the form by hand. The geolocation button needs JavaScript.